Regional Weather Roundup
Issued by NWS

Home | Current Version | Previous Version | Text Only | Print | Product List | Glossary Off
Versions: 1 2 3 4 5 6 7 8 9 10 11 12 13 14 15 16 17 18 19 20 21 22 23 24 25 26 27 28 29 30 31 32 33 34 35 36 37 38 39 40 41 42 43 44 45 46 47 48 49 50

000
ASUS43 KDMX 190207
RWRIA

WEATHER ROUNDUP FOR IOWA
NATIONAL WEATHER SERVICE DES MOINES IA
900 PM CDT SAT APR 18 2015

NOTE: "FAIR" INDICATES FEW OR NO CLOUDS BELOW 12,000 FEET WITH NO
SIGNIFICANT WEATHER AND/OR OBSTRUCTIONS TO VISIBILITY.

* - THESE STATIONS ARE NOT NWS STATIONS...THUS NOT UNDER NWS
QUALITY CONTROL.  THEY ALSO DO NOT REPORT WEATHER SUCH
AS PRECIPITATION OR FOG.

IAZ001>003-012>014-020>022-031>034-043>046-190300-
   NORTHWEST IOWA

CITY           SKY/WX    TMP DP  RH WIND       PRES   REMARKS
CARROLL *      CLOUDY    57  57 100 E12       29.82S
CHEROKEE *     DRIZZLE   57  57 100 CALM      29.83R
DENISON *      CLOUDY    57  57 100 S8G17     29.81R
LE MARS *      MOCLDY    59  57  94 S7        29.83R
ORANGE CITY *  PTCLDY   N/A N/A N/A S5        29.82R
SHELDON *      CLOUDY    57  57 100 E7        29.82R
SIOUX CITY     CLOUDY    59  55  87 SE7       29.82R
SPENCER        LGT RAIN  56  55  97 E6        29.83R FOG
STORM LAKE *   CLOUDY    57  55  94 E13       29.82R
$$

IAZ055>058-069>071-079>083-090>094-190300-
   SOUTHWEST IOWA

CITY           SKY/WX    TMP DP  RH WIND       PRES   REMARKS
ATLANTIC *     CLOUDY    59  59 100 SW5       29.84R
AUDUBON *      CLOUDY    57  55  94 CALM      29.84R
CLARINDA *     CLOUDY    59  59 100 CALM      29.85S
COUNCIL BLFS * CLEAR     57  57 100 S6        29.84S
CRESTON *      MOCLDY    57  57 100 CALM      29.84S
HARLAN  *      CLOUDY    59  59 100 SW7       29.87R
LAMONI         CLOUDY    61  59  93 CALM      29.84S
RED OAK *      CLOUDY    59  59 100 CALM      29.84S
SHENANDOAH *   MOCLDY    57  57 100 CALM      29.84S
$$

IAZ047>049-059>061-072>074-084-190300-
   CENTRAL IOWA

CITY           SKY/WX    TMP DP  RH WIND       PRES   REMARKS
AMES           LGT RAIN  59  58  96 NE8       29.83F
ANKENY *       CLOUDY    61  61 100 CALM      29.83S
CHARITON *     CLOUDY    59  59 100 E7        29.83F
DES MOINES     LGT RAIN  62  59  90 NE6       29.83S
GRINNELL*      CLOUDY    59  55  88 E8        29.88R
KNOXVILLE *    CLOUDY    59  57  94 SE7       29.84R
MARSHALLTOWN   CLOUDY    59  56  89 CALM      29.86F
PELLA *        CLOUDY    59  59 100 SE7       29.87R
PERRY *        CLOUDY    59  59 100 E5        29.83F
$$

IAZ004>006-015-016-023>025-035-036-190300-
   NORTH CENTRAL IOWA

CITY           SKY/WX    TMP DP  RH WIND       PRES   REMARKS
ALGONA *       CLOUDY    57  57 100 E7        29.86S
CLARION *      CLOUDY    57  57 100 E15       29.86F FOG
ESTHERVILLE    LGT RAIN  55  54  96 E16       29.85R FOG
FORT DODGE *   CLOUDY    57  54  88 E9        29.86S
MASON CITY     RAIN      58  32  37 SE6       29.93R
FOREST CITY *  RAIN      55  55 100 E13       29.90S
IOWA FALLS *   LGT RAIN  57  55  94 NE6       29.89F
$$

IAZ007>011-017>019-026>030-037>042-050>054-066-190300-
   NORTHEAST IOWA

CITY           SKY/WX    TMP DP  RH WIND       PRES   REMARKS
CEDAR RAPIDS   TSTM      60  57  89 W8        29.91R FOG
CHARLES CITY * LGT RAIN  59  57  94 SW7       29.94R
CLINTON *      MOCLDY    64  43  45 E17G23    29.94S
DECORAH *      CLOUDY    63  37  39 E13G21    29.91S
DUBUQUE        CLOUDY    65  36  34 E17       29.93S
MONTICELLO *   PTCLDY    66  43  42 E14G20    29.89S
OELWEIN *      MOCLDY    63  46  55 SW14G20   29.94R
WATERLOO       RAIN      59  56  89 SW8       29.92R
$$

IAZ064-065-067-068-078-190300-
   EAST CENTRAL IOWA

CITY           SKY/WX    TMP DP  RH WIND       PRES   REMARKS
DAVENPORT      MOCLDY    67  46  47 E17       29.91R
IOWA CITY      TSTM      63  56  78 W8        29.94R
MT. PLEASANT * HVY RAIN  61  57  88 E8        29.93R
MUSCATINE *    CLOUDY    70  54  56 SW6G14    29.90R
QUAD CITIES    MOCLDY    68  47  46 E17       29.91R
$$

IAZ062-063-075>077-085>089-095>099-190300-
   SOUTHEAST IOWA

CITY           SKY/WX    TMP DP  RH WIND       PRES   REMARKS
BURLINGTON     MOCLDY    68  55  63 W6        29.89R
FAIRFIELD *    CLOUDY    61  57  88 CALM      29.88S
FORT MADISON * MOCLDY    63  61  94 CALM      29.90F
KEOKUK *       CLOUDY    63  61  94 NE9       29.88S
OSKALOOSA *    MOCLDY    59  55  88 CALM      29.86F
CENTERVILLE *  CLEAR     57  57 100 E3        29.87F
OTTUMWA        CLOUDY    58  58 100 CALM      29.86F
WASHINGTON *   MOCLDY    64  57  77 VRB3      29.90S
$$

ABBREVIATIONS USED IN REMARKS
   TC - TEMPERATURES IN CELSIUS
  WCI - WIND CHILL INDEX
   HX - HEAT INDEX
  VSB - VISIBILITY
$$



USA.gov is the U.S. government's official web portal to all federal, state and local government web resources and services.